Time,TemperatureF,DewpointF,PressureIn,WindDirection,WindDirectionDegrees,WindSpeedMPH,WindSpeedGustMPH,Humidity,HourlyPrecipIn,Conditions,Clouds,dailyrainin,SoftwareType,DateUTC
2013-04-29 00:00:00,53.9,52.8,29.80,WNW,292,0.0,0.0,96,0.00,,SKC,0.00,VWS V14.01,2013-04-29 04:00:00,
2013-04-29 00:01:00,53.9,52.8,29.81,WNW,292,0.0,0.0,96,0.00,,SKC,0.00,VWS V14.01,2013-04-29 04:01:00,
2013-04-29 00:06:00,53.9,52.8,29.81,WNW,292,0.0,0.0,96,0.00,,SKC,0.00,VWS V14.01,2013-04-29 04:06:00,
2013-04-29 00:11:00,53.9,52.8,29.81,WNW,292,0.0,0.0,96,0.00,,SKC,0.00,VWS V14.01,2013-04-29 04:11:00,
2013-04-29 00:16:00,53.9,52.8,29.80,WNW,292,0.0,0.0,96,0.00,,SKC,0.00,VWS V14.01,2013-04-29 04:16:00,
2013-04-29 00:21:00,53.9,52.8,29.81,WNW,292,0.0,0.0,96,0.00,,SKC,0.00,VWS V14.01,2013-04-29 04:21:00,
2013-04-29 00:26:00,53.9,52.8,29.80,WNW,292,0.0,0.0,96,0.00,,SKC,0.00,VWS V14.01,2013-04-29 04:26:00,
2013-04-29 00:31:00,53.7,52.6,29.80,WNW,292,0.0,0.0,96,0.00,,SKC,0.00,VWS V14.01,2013-04-29 04:31:00,
2013-04-29 00:36:00,53.7,52.6,29.81,WNW,292,0.0,0.0,96,0.00,,SKC,0.00,VWS V14.01,2013-04-29 04:36:00,
2013-04-29 00:41:00,53.9,52.8,29.80,WNW,292,0.0,0.0,96,0.00,,SKC,0.00,VWS V14.01,2013-04-29 04:41:00,
2013-04-29 00:46:00,53.9,52.8,29.80,WNW,292,0.0,0.0,96,0.00,,SKC,0.00,VWS V14.01,2013-04-29 04:46:00,
2013-04-29 00:51:00,53.9,52.8,29.81,WNW,292,0.0,0.0,96,0.00,,SKC,0.00,VWS V14.01,2013-04-29 04:51:00,
2013-04-29 00:57:00,53.9,52.8,29.81,WNW,292,0.0,0.0,96,0.00,,SKC,0.00,VWS V14.01,2013-04-29 04:57:00,
2013-04-29 01:02:00,53.9,52.8,29.80,WNW,292,0.0,0.0,96,0.00,,SKC,0.00,VWS V14.01,2013-04-29 05:02:00,
2013-04-29 01:07:00,53.7,52.6,29.80,WNW,292,0.0,0.0,96,0.00,,SKC,0.00,VWS V14.01,2013-04-29 05:07:00,
2013-04-29 01:12:00,53.7,52.6,29.81,WNW,292,0.0,0.0,96,0.00,,SKC,0.00,VWS V14.01,2013-04-29 05:12:00,
2013-04-29 01:17:00,53.7,52.6,29.81,WNW,292,0.0,0.0,96,0.00,,SKC,0.00,VWS V14.01,2013-04-29 05:17:00,
2013-04-29 01:22:00,53.7,52.6,29.81,WNW,292,0.0,0.0,96,0.00,,SKC,0.00,VWS V14.01,2013-04-29 05:22:00,
2013-04-29 01:27:00,53.7,52.6,29.81,WNW,292,0.0,0.0,96,0.00,,SKC,0.00,VWS V14.01,2013-04-29 05:27:00,
2013-04-29 01:32:00,53.7,52.6,29.81,WNW,292,0.0,0.0,96,0.00,,SKC,0.00,VWS V14.01,2013-04-29 05:32:00,
2013-04-29 01:37:00,53.7,52.6,29.81,WNW,292,0.0,0.0,96,0.00,,SKC,0.00,VWS V14.01,2013-04-29 05:37:00,
2013-04-29 01:42:00,53.7,52.6,29.81,WNW,292,0.0,0.0,96,0.00,,SKC,0.00,VWS V14.01,2013-04-29 05:42:00,
2013-04-29 01:47:00,53.7,52.6,29.81,WNW,292,0.0,0.0,96,0.00,,SKC,0.00,VWS V14.01,2013-04-29 05:47:00,
2013-04-29 01:52:00,53.7,52.6,29.81,WNW,292,0.0,0.0,96,0.00,,SKC,0.00,VWS V14.01,2013-04-29 05:52:00,
2013-04-29 01:57:00,53.7,52.6,29.81,WNW,292,0.0,0.0,96,0.00,,SKC,0.00,VWS V14.01,2013-04-29 05:57:00,
2013-04-29 02:02:00,53.7,52.6,29.81,WNW,292,0.0,0.0,96,0.00,,SKC,0.00,VWS V14.01,2013-04-29 06:02:00,
2013-04-29 02:07:00,53.7,52.6,29.81,WNW,292,0.0,0.0,96,0.00,,SKC,0.00,VWS V14.01,2013-04-29 06:07:00,
2013-04-29 02:12:00,53.7,52.6,29.81,WNW,292,0.0,0.0,96,0.00,,SKC,0.00,VWS V14.01,2013-04-29 06:12:00,
2013-04-29 02:17:00,53.7,52.6,29.81,WNW,292,0.0,0.0,96,0.00,,SKC,0.00,VWS V14.01,2013-04-29 06:17:00,
2013-04-29 02:22:00,53.7,52.6,29.81,WNW,292,0.0,0.0,96,0.00,,SKC,0.00,VWS V14.01,2013-04-29 06:22:00,
2013-04-29 02:27:00,53.7,52.6,29.81,WNW,292,0.0,0.0,96,0.00,,SKC,0.00,VWS V14.01,2013-04-29 06:27:00,
2013-04-29 02:32:00,53.6,52.5,29.81,WNW,292,0.0,0.0,96,0.00,,SKC,0.00,VWS V14.01,2013-04-29 06:32:00,
2013-04-29 02:37:00,53.6,52.5,29.81,WNW,292,0.0,0.0,96,0.00,,SKC,0.00,VWS V14.01,2013-04-29 06:37:00,
2013-04-29 02:42:00,53.6,52.5,29.81,WNW,292,0.0,0.0,96,0.00,,SKC,0.00,VWS V14.01,2013-04-29 06:42:00,
2013-04-29 02:47:00,53.6,52.5,29.81,WNW,292,0.0,0.0,96,0.00,,SKC,0.00,VWS V14.01,2013-04-29 06:47:00,
2013-04-29 02:52:00,53.7,52.6,29.81,WNW,292,0.0,0.0,96,0.00,,SKC,0.00,VWS V14.01,2013-04-29 06:52:00,
2013-04-29 02:57:00,53.6,52.5,29.81,WNW,292,0.0,0.0,96,0.00,,SKC,0.00,VWS V14.01,2013-04-29 06:57:00,
2013-04-29 03:02:00,53.7,52.6,29.81,NW,315,0.0,0.0,96,0.00,,SKC,0.00,VWS V14.01,2013-04-29 07:02:00,
2013-04-29 03:07:00,53.7,52.6,29.81,NW,315,0.0,0.0,96,0.00,,SKC,0.00,VWS V14.01,2013-04-29 07:07:00,
2013-04-29 03:12:00,53.7,52.6,29.81,NW,315,0.0,0.0,96,0.00,,SKC,0.00,VWS V14.01,2013-04-29 07:12:00,
2013-04-29 03:17:00,53.7,52.6,29.81,NW,315,0.0,0.0,96,0.00,,SKC,0.00,VWS V14.01,2013-04-29 07:17:00,
2013-04-29 03:22:00,53.7,52.6,29.81,NNW,338,0.0,0.0,96,0.00,,SKC,0.00,VWS V14.01,2013-04-29 07:22:00,
2013-04-29 03:27:00,53.7,52.6,29.81,NNW,338,0.0,0.0,96,0.00,,SKC,0.00,VWS V14.01,2013-04-29 07:27:00,
2013-04-29 03:32:00,53.7,52.6,29.81,NNW,338,0.0,0.0,96,0.00,,SKC,0.00,VWS V14.01,2013-04-29 07:32:00,
2013-04-29 03:37:00,53.7,52.6,29.81,NNW,338,0.0,0.4,96,0.00,,SKC,0.00,VWS V14.01,2013-04-29 07:37:00,
2013-04-29 03:42:00,53.7,52.6,29.81,NNW,338,0.0,0.4,96,0.00,,SKC,0.00,VWS V14.01,2013-04-29 07:42:00,
2013-04-29 03:47:00,53.7,52.6,29.81,NNW,338,0.0,0.0,96,0.00,,SKC,0.00,VWS V14.01,2013-04-29 07:47:00,
2013-04-29 03:52:00,53.7,52.6,29.81,NNW,338,0.0,0.0,96,0.00,,SKC,0.00,VWS V14.01,2013-04-29 07:52:00,
2013-04-29 03:57:00,53.7,52.6,29.81,NNW,338,0.0,2.6,96,0.00,,SKC,0.00,VWS V14.01,2013-04-29 07:57:00,
2013-04-29 04:02:00,53.7,52.6,29.81,NNW,338,0.8,0.8,96,0.00,,SKC,0.00,VWS V14.01,2013-04-29 08:02:00,
2013-04-29 04:07:00,53.7,52.6,29.82,NNW,338,0.8,0.8,96,0.00,,SKC,0.00,VWS V14.01,2013-04-29 08:07:00,
2013-04-29 04:12:00,53.7,52.6,29.82,NW,315,0.0,2.9,96,0.00,,SKC,0.00,VWS V14.01,2013-04-29 08:12:00,
2013-04-29 04:17:00,53.7,52.6,29.82,NNW,338,1.1,1.1,96,0.00,,SKC,0.00,VWS V14.01,2013-04-29 08:17:00,
2013-04-29 04:22:00,53.7,52.6,29.82,NNW,338,0.8,1.1,96,0.00,,SKC,0.00,VWS V14.01,2013-04-29 08:22:00,
2013-04-29 04:27:00,53.7,52.6,29.82,NW,315,0.0,1.1,96,0.00,,SKC,0.00,VWS V14.01,2013-04-29 08:27:00,
2013-04-29 04:32:00,53.7,52.6,29.82,NW,315,0.0,1.5,96,0.00,,SKC,0.00,VWS V14.01,2013-04-29 08:32:00,
2013-04-29 04:37:00,53.7,52.6,29.82,West,270,0.0,1.5,96,0.00,,SKC,0.00,VWS V14.01,2013-04-29 08:37:00,
2013-04-29 04:42:00,53.7,52.6,29.83,NNW,338,0.0,1.5,96,0.00,,SKC,0.00,VWS V14.01,2013-04-29 08:42:00,
2013-04-29 04:48:00,53.6,52.5,29.83,NNW,338,0.2,1.1,96,0.00,,SKC,0.00,VWS V14.01,2013-04-29 08:48:00,
2013-04-29 04:53:00,53.6,52.5,29.82,NNW,338,1.7,1.7,96,0.00,,SKC,0.00,VWS V14.01,2013-04-29 08:53:00,
2013-04-29 04:58:00,53.6,52.5,29.82,NW,315,0.0,1.7,96,0.00,,SKC,0.00,VWS V14.01,2013-04-29 08:58:00,
2013-04-29 05:03:00,53.7,52.6,29.82,NW,315,0.0,0.0,96,0.00,,SKC,0.00,VWS V14.01,2013-04-29 09:03:00,
2013-04-29 05:08:00,53.7,52.6,29.83,NW,315,2.0,2.0,96,0.00,,SKC,0.00,VWS V14.01,2013-04-29 09:08:00,
2013-04-29 05:13:00,53.7,52.6,29.83,North,0,0.0,2.0,96,0.00,,SKC,0.00,VWS V14.01,2013-04-29 09:13:00,
2013-04-29 05:18:00,53.7,52.6,29.83,NW,315,0.0,0.0,96,0.00,,SKC,0.00,VWS V14.01,2013-04-29 09:18:00,
2013-04-29 05:23:00,53.6,52.5,29.83,NNW,338,0.6,1.5,96,0.00,,SKC,0.00,VWS V14.01,2013-04-29 09:23:00,
2013-04-29 05:28:00,53.6,52.5,29.84,NNW,338,1.3,1.5,96,0.00,,SKC,0.00,VWS V14.01,2013-04-29 09:28:00,
2013-04-29 05:33:00,53.6,52.5,29.84,NW,315,0.4,0.4,96,0.00,,SKC,0.00,VWS V14.01,2013-04-29 09:33:00,
2013-04-29 05:38:00,53.6,52.5,29.84,NNW,338,0.8,1.5,96,0.00,,SKC,0.00,VWS V14.01,2013-04-29 09:38:00,
2013-04-29 05:43:00,53.6,52.5,29.84,NNW,338,0.0,1.5,96,0.00,,SKC,0.00,VWS V14.01,2013-04-29 09:43:00,
2013-04-29 05:48:00,53.4,52.3,29.83,NNW,338,0.4,0.8,96,0.00,,SKC,0.00,VWS V14.01,2013-04-29 09:48:00,
2013-04-29 05:53:00,53.4,52.3,29.83,NNW,338,0.0,0.8,96,0.00,,SKC,0.00,VWS V14.01,2013-04-29 09:53:00,
2013-04-29 05:58:00,53.2,52.1,29.84,NNW,338,0.0,0.8,96,0.00,,SKC,0.00,VWS V14.01,2013-04-29 09:58:00,
2013-04-29 06:03:00,53.2,52.1,29.84,NNW,338,0.0,0.0,96,0.00,,SKC,0.00,VWS V14.01,2013-04-29 10:03:00,
2013-04-29 06:08:00,53.2,52.1,29.84,NNW,338,0.0,0.0,96,0.00,,SKC,0.00,VWS V14.01,2013-04-29 10:08:00,
2013-04-29 06:13:00,53.2,52.1,29.84,NNW,338,0.0,0.0,96,0.00,,SKC,0.00,VWS V14.01,2013-04-29 10:13:00,
2013-04-29 06:18:00,53.2,52.1,29.84,NNW,338,0.0,0.0,96,0.00,,SKC,0.00,VWS V14.01,2013-04-29 10:18:00,
2013-04-29 06:23:00,53.2,52.1,29.84,NNW,338,0.0,0.0,96,0.00,,SKC,0.00,VWS V14.01,2013-04-29 10:23:00,
2013-04-29 06:28:00,53.2,52.1,29.84,NNW,338,0.0,0.0,96,0.00,,SKC,0.00,VWS V14.01,2013-04-29 10:28:00,
2013-04-29 06:33:00,53.2,52.1,29.85,NW,315,0.0,0.0,96,0.00,,SKC,0.00,VWS V14.01,2013-04-29 10:33:00,
2013-04-29 06:38:00,53.2,52.1,29.85,NW,315,0.4,0.4,96,0.00,,SKC,0.00,VWS V14.01,2013-04-29 10:38:00,
2013-04-29 06:43:00,53.2,52.1,29.85,NW,315,0.0,0.4,96,0.00,,SKC,0.00,VWS V14.01,2013-04-29 10:43:00,
2013-04-29 06:48:00,53.2,52.1,29.85,NW,315,0.0,0.0,96,0.00,,SKC,0.00,VWS V14.01,2013-04-29 10:48:00,
2013-04-29 06:53:00,53.2,52.1,29.85,NW,315,0.0,0.0,96,0.00,,SKC,0.00,VWS V14.01,2013-04-29 10:53:00,
2013-04-29 06:58:00,53.2,52.1,29.85,NW,315,0.0,0.0,96,0.00,,SKC,0.00,VWS V14.01,2013-04-29 10:58:00,
2013-04-29 07:03:00,53.2,52.1,29.86,NNW,338,0.0,0.4,96,0.00,,SKC,0.00,VWS V14.01,2013-04-29 11:03:00,
2013-04-29 07:08:00,53.2,52.1,29.86,NNW,338,0.0,0.4,96,0.00,,SKC,0.00,VWS V14.01,2013-04-29 11:08:00,
2013-04-29 07:13:00,53.2,52.1,29.86,NNW,338,0.0,0.4,96,0.00,,SKC,0.00,VWS V14.01,2013-04-29 11:13:00,
2013-04-29 07:18:00,53.4,52.3,29.86,NNW,338,0.0,0.0,96,0.00,,SKC,0.00,VWS V14.01,2013-04-29 11:18:00,
2013-04-29 07:23:00,53.4,52.3,29.86,NNW,338,0.0,0.0,96,0.00,,SKC,0.00,VWS V14.01,2013-04-29 11:23:00,
2013-04-29 07:28:00,53.4,52.3,29.86,NNW,338,0.0,0.0,96,0.00,,SKC,0.00,VWS V14.01,2013-04-29 11:28:00,
2013-04-29 07:33:00,53.6,52.5,29.86,NNW,338,0.0,0.0,96,0.00,,SKC,0.00,VWS V14.01,2013-04-29 11:33:00,
2013-04-29 07:38:00,53.6,52.5,29.86,NNW,338,0.0,0.0,96,0.00,,SKC,0.00,VWS V14.01,2013-04-29 11:38:00,
2013-04-29 07:43:00,53.6,52.5,29.86,NNW,338,0.0,0.0,96,0.00,,SKC,0.00,VWS V14.01,2013-04-29 11:43:00,
2013-04-29 07:48:00,53.7,52.6,29.86,NNW,338,0.0,0.0,96,0.00,,SKC,0.00,VWS V14.01,2013-04-29 11:48:00,
2013-04-29 07:53:00,53.7,52.6,29.87,NNW,338,0.0,1.1,96,0.00,,SKC,0.00,VWS V14.01,2013-04-29 11:53:00,
2013-04-29 07:58:00,53.7,52.6,29.87,NNW,338,0.0,1.1,96,0.00,,SKC,0.00,VWS V14.01,2013-04-29 11:58:00,
2013-04-29 08:03:00,53.7,52.6,29.87,NNW,338,0.0,0.0,96,0.00,,SKC,0.00,VWS V14.01,2013-04-29 12:03:00,
2013-04-29 08:08:00,53.7,52.6,29.87,NW,315,0.0,0.0,96,0.00,,SKC,0.00,VWS V14.01,2013-04-29 12:08:00,
2013-04-29 08:13:00,53.7,52.6,29.88,NW,315,0.0,0.4,96,0.00,,SKC,0.00,VWS V14.01,2013-04-29 12:13:00,
2013-04-29 08:18:00,53.7,52.6,29.88,NW,315,0.0,0.0,96,0.00,,SKC,0.00,VWS V14.01,2013-04-29 12:18:00,
2013-04-29 08:24:00,53.9,52.8,29.88,NNW,338,0.0,0.4,96,0.00,,SKC,0.00,VWS V14.01,2013-04-29 12:24:00,
2013-04-29 08:29:00,53.7,52.6,29.88,West,270,0.0,0.4,96,0.00,,SKC,0.00,VWS V14.01,2013-04-29 12:29:00,
2013-04-29 08:34:00,53.9,52.8,29.88,NW,315,0.0,0.0,96,0.00,,SKC,0.00,VWS V14.01,2013-04-29 12:34:00,
2013-04-29 08:39:00,53.9,52.8,29.88,NNW,338,0.0,0.0,96,0.00,,SKC,0.00,VWS V14.01,2013-04-29 12:39:00,
2013-04-29 08:44:00,53.9,52.8,29.88,NNW,338,0.6,0.6,96,0.00,,SKC,0.00,VWS V14.01,2013-04-29 12:44:00,
2013-04-29 08:49:00,53.9,52.8,29.89,NNW,338,0.0,0.2,96,0.00,,SKC,0.00,VWS V14.01,2013-04-29 12:49:00,
2013-04-29 08:54:00,54.1,53.0,29.89,NNW,338,0.0,0.2,96,0.00,,SKC,0.00,VWS V14.01,2013-04-29 12:54:00,
2013-04-29 08:59:00,54.1,53.0,29.89,NNW,338,0.0,0.2,96,0.00,,SKC,0.00,VWS V14.01,2013-04-29 12:59:00,
2013-04-29 09:04:00,54.3,53.2,29.89,WNW,292,0.0,0.0,96,0.00,,SKC,0.00,VWS V14.01,2013-04-29 13:04:00,
2013-04-29 09:09:00,54.3,53.2,29.89,WNW,292,0.0,0.0,96,0.00,,SKC,0.00,VWS V14.01,2013-04-29 13:09:00,
2013-04-29 09:14:00,54.3,53.2,29.89,WNW,292,0.0,0.0,96,0.00,,SKC,0.00,VWS V14.01,2013-04-29 13:14:00,
2013-04-29 09:19:00,54.5,53.4,29.89,WNW,292,0.0,0.0,96,0.00,,SKC,0.00,VWS V14.01,2013-04-29 13:19:00,
2013-04-29 09:24:00,54.3,53.2,29.89,NW,315,0.8,0.8,96,0.00,,SKC,0.00,VWS V14.01,2013-04-29 13:24:00,
2013-04-29 09:29:00,54.5,53.4,29.89,NNW,338,0.6,1.3,96,0.00,,SKC,0.00,VWS V14.01,2013-04-29 13:29:00,
2013-04-29 09:34:00,54.5,53.4,29.89,NW,315,2.4,3.1,96,0.00,,SKC,0.00,VWS V14.01,2013-04-29 13:34:00,
2013-04-29 09:39:00,54.8,53.7,29.89,West,270,0.0,3.1,96,0.00,,SKC,0.00,VWS V14.01,2013-04-29 13:39:00,
2013-04-29 09:44:00,55.0,53.9,29.90,West,270,0.0,3.1,96,0.00,,SKC,0.00,VWS V14.01,2013-04-29 13:44:00,
2013-04-29 09:49:00,55.0,53.9,29.90,NNW,338,0.6,2.6,96,0.00,,SKC,0.00,VWS V14.01,2013-04-29 13:49:00,
2013-04-29 09:54:00,55.4,54.3,29.90,West,270,0.0,2.6,96,0.00,,SKC,0.00,VWS V14.01,2013-04-29 13:54:00,
2013-04-29 09:59:00,55.4,54.3,29.90,NNW,338,0.0,2.6,96,0.00,,SKC,0.00,VWS V14.01,2013-04-29 13:59:00,
2013-04-29 10:04:00,55.7,54.6,29.90,WNW,292,0.4,0.4,96,0.00,,SKC,0.00,VWS V14.01,2013-04-29 14:04:00,
2013-04-29 10:09:00,55.5,54.4,29.90,NNW,338,0.6,0.6,96,0.00,,SKC,0.00,VWS V14.01,2013-04-29 14:09:00,
2013-04-29 10:14:00,55.9,54.8,29.90,NNW,338,0.4,0.6,96,0.00,,SKC,0.00,VWS V14.01,2013-04-29 14:14:00,
2013-04-29 10:19:00,56.1,55.0,29.90,NNW,338,0.0,1.7,96,0.00,,SKC,0.00,VWS V14.01,2013-04-29 14:19:00,
2013-04-29 10:24:00,56.1,55.0,29.90,NNE,22,1.3,1.7,96,0.00,,SKC,0.00,VWS V14.01,2013-04-29 14:24:00,
2013-04-29 10:29:00,56.3,55.2,29.90,NNW,338,1.7,1.7,96,0.00,,SKC,0.00,VWS V14.01,2013-04-29 14:29:00,
2013-04-29 10:34:00,56.4,55.3,29.90,North,0,0.0,1.7,96,0.00,,SKC,0.00,VWS V14.01,2013-04-29 14:34:00,
2013-04-29 10:39:00,56.6,55.5,29.90,NW,315,0.0,1.7,96,0.00,,SKC,0.00,VWS V14.01,2013-04-29 14:39:00,
2013-04-29 10:44:00,56.6,55.5,29.90,North,0,0.0,3.3,96,0.00,,SKC,0.00,VWS V14.01,2013-04-29 14:44:00,
2013-04-29 10:49:00,56.6,55.5,29.91,NW,315,1.1,4.0,96,0.00,,SKC,0.00,VWS V14.01,2013-04-29 14:49:00,
2013-04-29 10:54:00,56.6,55.5,29.90,NNW,338,1.3,4.0,96,0.00,,SKC,0.00,VWS V14.01,2013-04-29 14:54:00,
2013-04-29 10:59:00,56.4,55.3,29.91,NW,315,0.0,4.6,96,0.00,,SKC,0.00,VWS V14.01,2013-04-29 14:59:00,
2013-04-29 11:04:00,56.4,55.3,29.90,NW,315,0.6,2.9,96,0.00,,SKC,0.00,VWS V14.01,2013-04-29 15:04:00,
2013-04-29 11:09:00,56.8,55.7,29.90,NW,315,0.0,2.9,96,0.00,,SKC,0.00,VWS V14.01,2013-04-29 15:09:00,
2013-04-29 11:14:00,57.3,56.2,29.90,NNW,338,0.0,2.9,96,0.00,,SKC,0.00,VWS V14.01,2013-04-29 15:14:00,
2013-04-29 11:19:00,58.1,55.8,29.90,WSW,248,0.0,2.0,92,0.00,,SKC,0.00,VWS V14.01,2013-04-29 15:19:00,
2013-04-29 11:25:00,58.8,55.9,29.90,WNW,292,0.0,2.0,90,0.00,,SKC,0.00,VWS V14.01,2013-04-29 15:25:00,
2013-04-29 11:30:00,58.8,55.6,29.90,West,270,0.0,2.0,89,0.00,,SKC,0.00,VWS V14.01,2013-04-29 15:30:00,
2013-04-29 11:35:00,59.1,55.2,29.91,NW,315,0.8,2.0,87,0.00,,SKC,0.00,VWS V14.01,2013-04-29 15:35:00,
2013-04-29 11:40:00,59.3,55.1,29.91,WSW,248,0.2,2.0,86,0.00,,SKC,0.00,VWS V14.01,2013-04-29 15:40:00,
2013-04-29 11:45:00,59.7,55.2,29.90,NNW,338,0.0,2.0,85,0.00,,SKC,0.00,VWS V14.01,2013-04-29 15:45:00,
2013-04-29 11:50:00,60.8,55.6,29.90,NNW,338,0.6,2.0,83,0.00,,SKC,0.00,VWS V14.01,2013-04-29 15:50:00,
2013-04-29 11:55:00,61.8,55.9,29.90,NNW,338,2.0,2.0,81,0.00,,SKC,0.00,VWS V14.01,2013-04-29 15:55:00,
2013-04-29 12:00:00,62.2,55.6,29.90,NW,315,2.0,2.0,79,0.00,,SKC,0.00,VWS V14.01,2013-04-29 16:00:00,
2013-04-29 12:05:00,62.4,55.1,29.89,SW,225,0.0,2.0,77,0.00,,SKC,0.00,VWS V14.01,2013-04-29 16:05:00,
2013-04-29 12:10:00,62.9,55.2,29.90,NNE,22,1.5,2.0,76,0.00,,SKC,0.00,VWS V14.01,2013-04-29 16:10:00,
2013-04-29 12:15:00,62.9,54.9,29.90,NNE,22,0.0,2.0,75,0.00,,SKC,0.00,VWS V14.01,2013-04-29 16:15:00,
2013-04-29 12:20:00,63.3,54.9,29.90,ENE,68,0.0,0.0,74,0.00,,SKC,0.00,VWS V14.01,2013-04-29 16:20:00,
2013-04-29 12:25:00,63.5,53.9,29.89,NE,45,0.0,1.5,71,0.00,,SKC,0.00,VWS V14.01,2013-04-29 16:25:00,
2013-04-29 12:30:00,63.6,54.0,29.89,ENE,68,0.0,2.2,71,0.00,,SKC,0.00,VWS V14.01,2013-04-29 16:30:00,
2013-04-29 12:35:00,64.2,54.2,29.89,East,90,0.0,0.0,70,0.00,,SKC,0.00,VWS V14.01,2013-04-29 16:35:00,
2013-04-29 12:40:00,65.1,55.1,29.89,WNW,292,0.4,1.3,70,0.00,,SKC,0.00,VWS V14.01,2013-04-29 16:40:00,
2013-04-29 12:45:00,65.6,54.8,29.89,NNW,338,0.6,1.3,68,0.00,,SKC,0.00,VWS V14.01,2013-04-29 16:45:00,
2013-04-29 12:50:00,65.8,54.5,29.89,NE,45,1.7,1.7,67,0.00,,SKC,0.00,VWS V14.01,2013-04-29 16:50:00,
2013-04-29 12:55:00,65.6,53.5,29.89,West,270,0.6,1.7,65,0.00,,SKC,0.00,VWS V14.01,2013-04-29 16:55:00,
2013-04-29 13:00:00,65.8,53.7,29.89,NE,45,0.8,1.7,65,0.00,,SKC,0.00,VWS V14.01,2013-04-29 17:00:00,
2013-04-29 13:05:00,66.3,54.6,29.88,West,270,0.0,1.5,66,0.00,,SKC,0.00,VWS V14.01,2013-04-29 17:05:00,
2013-04-29 13:10:00,67.1,55.0,29.89,NNW,338,3.3,3.3,65,0.00,,SKC,0.00,VWS V14.01,2013-04-29 17:10:00,
2013-04-29 13:15:00,67.1,54.1,29.89,NW,315,1.3,3.3,63,0.00,,SKC,0.00,VWS V14.01,2013-04-29 17:15:00,
2013-04-29 13:20:00,67.4,54.8,29.89,NW,315,0.0,0.0,64,0.00,,SKC,0.00,VWS V14.01,2013-04-29 17:20:00,
2013-04-29 13:25:00,67.6,54.1,29.88,NW,315,2.2,2.2,62,0.00,,SKC,0.00,VWS V14.01,2013-04-29 17:25:00,
2013-04-29 13:30:00,67.6,53.7,29.89,NNW,338,5.5,5.5,61,0.00,,SKC,0.00,VWS V14.01,2013-04-29 17:30:00,
2013-04-29 13:35:00,67.4,53.5,29.88,NE,45,0.0,5.5,61,0.00,,SKC,0.00,VWS V14.01,2013-04-29 17:35:00,
2013-04-29 13:40:00,67.8,53.9,29.88,NNW,338,0.0,5.5,61,0.00,,SKC,0.00,VWS V14.01,2013-04-29 17:40:00,
2013-04-29 13:45:00,68.5,54.5,29.89,WNW,292,0.0,0.0,61,0.00,,SKC,0.00,VWS V14.01,2013-04-29 17:45:00,
2013-04-29 13:50:00,68.7,53.8,29.88,NW,315,2.9,5.8,59,0.00,,SKC,0.00,VWS V14.01,2013-04-29 17:50:00,
2013-04-29 13:55:00,68.7,54.3,29.88,WSW,248,0.0,5.8,60,0.00,,SKC,0.00,VWS V14.01,2013-04-29 17:55:00,
2013-04-29 14:00:00,69.0,54.5,29.88,SSW,202,0.8,0.8,60,0.00,,SKC,0.00,VWS V14.01,2013-04-29 18:00:00,
2013-04-29 14:05:00,69.4,54.0,29.88,WNW,292,0.0,1.3,58,0.00,,SKC,0.00,VWS V14.01,2013-04-29 18:05:00,
2013-04-29 14:10:00,69.8,53.4,29.88,South,180,0.0,1.3,56,0.00,,SKC,0.00,VWS V14.01,2013-04-29 18:10:00,
2013-04-29 14:15:00,69.4,52.0,29.88,NNW,338,0.0,0.0,54,0.00,,SKC,0.00,VWS V14.01,2013-04-29 18:15:00,
2013-04-29 14:20:00,69.2,51.9,29.88,NW,315,0.0,1.5,54,0.00,,SKC,0.00,VWS V14.01,2013-04-29 18:20:00,
2013-04-29 14:26:00,69.2,51.4,29.88,NW,315,0.0,1.5,53,0.00,,SKC,0.00,VWS V14.01,2013-04-29 18:26:00,
2013-04-29 14:30:00,68.9,51.1,29.88,NW,315,2.0,2.0,53,0.00,,SKC,0.00,VWS V14.01,2013-04-29 18:30:00,
2013-04-29 14:36:00,68.7,51.4,29.88,North,0,0.4,2.0,54,0.00,,SKC,0.00,VWS V14.01,2013-04-29 18:36:00,
2013-04-29 14:41:00,68.7,51.4,29.88,West,270,0.0,2.0,54,0.00,,SKC,0.00,VWS V14.01,2013-04-29 18:41:00,
2013-04-29 14:46:00,68.5,51.2,29.87,WSW,248,0.0,0.0,54,0.00,,SKC,0.00,VWS V14.01,2013-04-29 18:46:00,
2013-04-29 14:51:00,68.5,51.2,29.88,WSW,248,0.0,0.0,54,0.00,,SKC,0.00,VWS V14.01,2013-04-29 18:51:00,
2013-04-29 14:56:00,69.4,52.5,29.87,WSW,248,0.8,2.2,55,0.00,,SKC,0.00,VWS V14.01,2013-04-29 18:56:00,
2013-04-29 15:01:00,69.4,51.5,29.87,West,270,0.8,0.8,53,0.00,,SKC,0.00,VWS V14.01,2013-04-29 19:01:00,
2013-04-29 15:06:00,69.9,52.0,29.87,SSW,202,1.7,1.7,53,0.00,,SKC,0.00,VWS V14.01,2013-04-29 19:06:00,
2013-04-29 15:11:00,70.3,51.9,29.86,SW,225,0.0,1.7,52,0.00,,SKC,0.00,VWS V14.01,2013-04-29 19:11:00,
2013-04-29 15:16:00,70.5,52.0,29.86,South,180,1.5,1.5,52,0.00,,SKC,0.00,VWS V14.01,2013-04-29 19:16:00,
2013-04-29 15:21:00,70.8,51.8,29.86,West,270,0.0,3.8,51,0.00,,SKC,0.00,VWS V14.01,2013-04-29 19:21:00,
2013-04-29 15:26:00,71.0,50.9,29.86,NW,315,4.9,4.9,49,0.00,,SKC,0.00,VWS V14.01,2013-04-29 19:26:00,
2013-04-29 15:31:00,71.0,50.9,29.87,West,270,0.0,0.0,49,0.00,,SKC,0.00,VWS V14.01,2013-04-29 19:31:00,
2013-04-29 15:36:00,70.8,50.2,29.86,WNW,292,0.0,0.0,48,0.00,,SKC,0.00,VWS V14.01,2013-04-29 19:36:00,
2013-04-29 15:41:00,70.8,50.2,29.86,West,270,0.0,1.5,48,0.00,,SKC,0.00,VWS V14.01,2013-04-29 19:41:00,
2013-04-29 15:46:00,70.7,50.6,29.86,WSW,248,0.8,0.8,49,0.00,,SKC,0.00,VWS V14.01,2013-04-29 19:46:00,
2013-04-29 15:51:00,70.8,50.7,29.86,NNW,338,3.5,3.5,49,0.00,,SKC,0.00,VWS V14.01,2013-04-29 19:51:00,
2013-04-29 15:56:00,70.5,49.9,29.86,West,270,0.0,3.5,48,0.00,,SKC,0.00,VWS V14.01,2013-04-29 19:56:00,
2013-04-29 16:01:00,70.3,49.7,29.86,NW,315,0.0,0.0,48,0.00,,SKC,0.00,VWS V14.01,2013-04-29 20:01:00,
2013-04-29 16:06:00,70.5,49.9,29.86,NNW,338,5.1,5.8,48,0.00,,SKC,0.00,VWS V14.01,2013-04-29 20:06:00,
2013-04-29 16:11:00,70.5,49.9,29.86,NNW,338,8.2,8.2,48,0.00,,SKC,0.00,VWS V14.01,2013-04-29 20:11:00,
2013-04-29 16:16:00,70.7,48.9,29.86,NNW,338,0.6,0.6,46,0.00,,SKC,0.00,VWS V14.01,2013-04-29 20:16:00,
2013-04-29 16:21:00,70.8,49.0,29.86,WSW,248,0.0,0.6,46,0.00,,SKC,0.00,VWS V14.01,2013-04-29 20:21:00,
2013-04-29 16:26:00,71.0,49.2,29.86,SSW,202,0.0,3.1,46,0.00,,SKC,0.00,VWS V14.01,2013-04-29 20:26:00,
2013-04-29 16:31:00,71.0,49.2,29.86,SW,225,0.4,0.4,46,0.00,,SKC,0.00,VWS V14.01,2013-04-29 20:31:00,
2013-04-29 16:36:00,70.8,49.0,29.85,WSW,248,0.2,1.7,46,0.00,,SKC,0.00,VWS V14.01,2013-04-29 20:36:00,
2013-04-29 16:41:00,70.8,49.6,29.85,SW,225,1.3,1.7,47,0.00,,SKC,0.00,VWS V14.01,2013-04-29 20:41:00,
2013-04-29 16:46:00,70.8,49.6,29.86,SW,225,0.0,0.0,47,0.00,,SKC,0.00,VWS V14.01,2013-04-29 20:46:00,
2013-04-29 16:51:00,71.0,50.3,29.85,WSW,248,0.0,2.6,48,0.00,,SKC,0.06,VWS V14.01,2013-04-29 20:51:00,
2013-04-29 16:56:00,70.7,49.5,29.85,South,180,0.0,2.6,47,0.00,,SKC,0.00,VWS V14.01,2013-04-29 20:56:00,
2013-04-29 17:01:00,70.7,49.5,29.85,South,180,0.0,0.0,47,0.00,,SKC,0.00,VWS V14.01,2013-04-29 21:01:00,
2013-04-29 17:06:00,70.7,49.5,29.85,WSW,248,0.6,0.6,47,0.00,,SKC,0.00,VWS V14.01,2013-04-29 21:06:00,
2013-04-29 17:11:00,70.7,49.5,29.85,WSW,248,0.6,0.6,47,0.00,,SKC,0.00,VWS V14.01,2013-04-29 21:11:00,
2013-04-29 17:16:00,70.7,49.5,29.85,WSW,248,0.6,0.6,47,0.00,,SKC,0.00,VWS V14.01,2013-04-29 21:16:00,
2013-04-29 17:21:00,70.8,50.2,29.85,SSE,158,0.0,1.3,48,0.00,,SKC,0.00,VWS V14.01,2013-04-29 21:21:00,
2013-04-29 17:26:00,71.6,50.9,29.85,SSE,158,0.0,1.3,48,0.00,,SKC,0.00,VWS V14.01,2013-04-29 21:26:00,
2013-04-29 17:31:00,71.6,50.9,29.86,SSE,158,0.0,0.0,48,0.00,,SKC,0.00,VWS V14.01,2013-04-29 21:31:00,
2013-04-29 17:36:00,71.6,50.9,29.85,SSE,158,0.0,0.0,48,0.00,,SKC,0.00,VWS V14.01,2013-04-29 21:36:00,
2013-04-29 17:41:00,71.6,50.9,29.85,SSE,158,0.0,0.0,48,0.00,,SKC,0.00,VWS V14.01,2013-04-29 21:41:00,
2013-04-29 17:46:00,71.6,50.9,29.85,SSE,158,0.0,0.0,48,0.00,,SKC,0.00,VWS V14.01,2013-04-29 21:46:00,
2013-04-29 17:51:00,71.6,50.9,29.85,SSE,158,0.0,0.0,48,0.00,,SKC,0.00,VWS V14.01,2013-04-29 21:51:00,
2013-04-29 17:56:00,71.6,50.9,29.85,SSE,158,0.0,0.0,48,0.00,,SKC,0.00,VWS V14.01,2013-04-29 21:56:00,
2013-04-29 18:02:00,71.6,50.9,29.85,SSE,158,0.0,0.0,48,0.00,,SKC,0.00,VWS V14.01,2013-04-29 22:02:00,
2013-04-29 18:07:00,71.6,50.9,29.85,SSE,158,0.0,0.0,48,0.00,,SKC,0.00,VWS V14.01,2013-04-29 22:07:00,
2013-04-29 18:12:00,71.6,50.9,29.85,SSE,158,0.0,0.0,48,0.00,,SKC,0.00,VWS V14.01,2013-04-29 22:12:00,
2013-04-29 18:17:00,71.6,50.9,29.85,SSE,158,0.0,0.0,48,0.00,,SKC,0.00,VWS V14.01,2013-04-29 22:17:00,
2013-04-29 18:22:00,71.6,50.9,29.85,SSE,158,0.0,0.0,48,0.00,,SKC,0.00,VWS V14.01,2013-04-29 22:22:00,
2013-04-29 18:27:00,71.6,50.9,29.85,SSE,158,0.0,0.0,48,0.00,,SKC,0.00,VWS V14.01,2013-04-29 22:27:00,
2013-04-29 18:32:00,69.9,49.3,29.86,SSE,158,3.5,3.5,48,0.00,,SKC,0.00,VWS V14.01,2013-04-29 22:32:00,
2013-04-29 18:37:00,69.9,49.9,29.86,South,180,0.8,3.5,49,0.00,,SKC,0.00,VWS V14.01,2013-04-29 22:37:00,
2013-04-29 18:42:00,69.9,49.9,29.86,South,180,3.3,3.5,49,0.00,,SKC,0.00,VWS V14.01,2013-04-29 22:42:00,
2013-04-29 18:47:00,69.9,49.9,29.85,SSW,202,2.9,2.9,49,0.00,,SKC,0.00,VWS V14.01,2013-04-29 22:47:00,
2013-04-29 18:52:00,70.1,50.1,29.85,SSW,202,2.9,2.9,49,0.00,,SKC,0.00,VWS V14.01,2013-04-29 22:52:00,
2013-04-29 18:57:00,70.1,50.1,29.85,SSW,202,2.9,2.9,49,0.00,,SKC,0.00,VWS V14.01,2013-04-29 22:57:00,
2013-04-29 19:02:00,69.6,49.6,29.85,SSW,202,5.8,5.8,49,0.00,,SKC,0.00,VWS V14.01,2013-04-29 23:02:00,
2013-04-29 19:07:00,69.6,49.6,29.86,SSW,202,5.8,5.8,49,0.00,,SKC,0.00,VWS V14.01,2013-04-29 23:07:00,
2013-04-29 19:12:00,69.6,49.6,29.85,SSW,202,5.8,5.8,49,0.00,,SKC,0.00,VWS V14.01,2013-04-29 23:12:00,
2013-04-29 19:17:00,69.6,49.6,29.85,SSW,202,5.8,5.8,49,0.00,,SKC,0.00,VWS V14.01,2013-04-29 23:17:00,
2013-04-29 19:22:00,69.6,49.6,29.85,SSW,202,5.8,5.8,49,0.00,,SKC,0.00,VWS V14.01,2013-04-29 23:22:00,
2013-04-29 19:27:00,69.6,49.6,29.85,SSW,202,5.8,5.8,49,0.00,,SKC,0.00,VWS V14.01,2013-04-29 23:27:00,
2013-04-29 19:32:00,69.6,50.7,29.86,South,180,1.5,1.5,51,0.00,,SKC,0.00,VWS V14.01,2013-04-29 23:32:00,
2013-04-29 19:37:00,69.4,50.5,29.86,WSW,248,0.2,1.5,51,0.00,,SKC,0.00,VWS V14.01,2013-04-29 23:37:00,
2013-04-29 19:42:00,69.4,50.5,29.86,WSW,248,0.2,1.5,51,0.00,,SKC,0.00,VWS V14.01,2013-04-29 23:42:00,
2013-04-29 19:47:00,68.5,49.7,29.86,SSW,202,0.0,0.0,51,0.00,,SKC,0.00,VWS V14.01,2013-04-29 23:47:00,
2013-04-29 19:52:00,68.3,50.5,29.86,SSW,202,0.0,0.0,53,0.00,,SKC,0.00,VWS V14.01,2013-04-29 23:52:00,
2013-04-29 19:57:00,68.3,50.5,29.86,SSW,202,0.0,0.0,53,0.00,,SKC,0.00,VWS V14.01,2013-04-29 23:57:00,
2013-04-29 20:02:00,67.1,49.9,29.86,SSW,202,1.3,1.3,54,0.00,,SKC,0.00,VWS V14.01,2013-04-30 00:02:00,
2013-04-29 20:07:00,66.3,50.2,29.87,SSW,202,2.2,2.2,56,0.00,,SKC,0.00,VWS V14.01,2013-04-30 00:07:00,
2013-04-29 20:12:00,66.2,50.1,29.86,SSW,202,0.8,2.2,56,0.00,,SKC,0.00,VWS V14.01,2013-04-30 00:12:00,
2013-04-29 20:17:00,65.6,50.0,29.87,SSW,202,1.3,1.3,57,0.00,,SKC,0.00,VWS V14.01,2013-04-30 00:17:00,
2013-04-29 20:22:00,65.4,49.8,29.87,SSW,202,2.2,2.2,57,0.00,,SKC,0.00,VWS V14.01,2013-04-30 00:22:00,
2013-04-29 20:27:00,65.1,50.0,29.86,SSW,202,0.0,2.2,58,0.00,,SKC,0.00,VWS V14.01,2013-04-30 00:27:00,
2013-04-29 20:32:00,64.9,50.2,29.86,SSW,202,0.0,0.0,59,0.00,,SKC,0.00,VWS V14.01,2013-04-30 00:32:00,
2013-04-29 20:37:00,64.5,50.3,29.86,SSW,202,0.0,0.0,60,0.00,,SKC,0.00,VWS V14.01,2013-04-30 00:37:00,
2013-04-29 20:42:00,64.0,49.8,29.87,SSW,202,0.0,3.3,60,0.00,,SKC,0.00,VWS V14.01,2013-04-30 00:42:00,
2013-04-29 20:47:00,63.8,50.1,29.87,SSW,202,0.0,0.4,61,0.00,,SKC,0.00,VWS V14.01,2013-04-30 00:47:00,
2013-04-29 20:52:00,63.5,49.8,29.86,South,180,2.9,2.9,61,0.00,,SKC,0.00,VWS V14.01,2013-04-30 00:52:00,
2013-04-29 20:57:00,62.9,49.7,29.86,South,180,3.3,4.9,62,0.00,,SKC,0.00,VWS V14.01,2013-04-30 00:57:00,
2013-04-29 21:02:00,62.7,49.9,29.87,South,180,0.0,1.7,63,0.00,,SKC,0.00,VWS V14.01,2013-04-30 01:02:00,
2013-04-29 21:07:00,62.2,49.9,29.87,SSW,202,2.6,2.6,64,0.00,,SKC,0.00,VWS V14.01,2013-04-30 01:07:00,
2013-04-29 21:12:00,62.0,50.1,29.87,South,180,0.2,2.6,65,0.00,,SKC,0.00,VWS V14.01,2013-04-30 01:12:00,
2013-04-29 21:17:00,61.7,50.2,29.87,South,180,2.2,2.4,66,0.00,,SKC,0.00,VWS V14.01,2013-04-30 01:17:00,
2013-04-29 21:23:00,61.5,50.0,29.86,SSE,158,0.4,2.4,66,0.00,,SKC,0.00,VWS V14.01,2013-04-30 01:23:00,
2013-04-29 21:28:00,61.3,50.7,29.87,SSW,202,1.5,2.4,68,0.00,,SKC,0.00,VWS V14.01,2013-04-30 01:28:00,
2013-04-29 21:33:00,61.1,50.5,29.87,South,180,0.4,0.4,68,0.00,,SKC,0.00,VWS V14.01,2013-04-30 01:33:00,
2013-04-29 21:38:00,60.9,50.7,29.88,South,180,1.5,1.5,69,0.00,,SKC,0.00,VWS V14.01,2013-04-30 01:38:00,
2013-04-29 21:43:00,60.6,50.4,29.88,South,180,0.0,1.5,69,0.00,,SKC,0.00,VWS V14.01,2013-04-30 01:43:00,
2013-04-29 21:48:00,60.4,50.6,29.87,South,180,0.0,0.6,70,0.00,,SKC,0.00,VWS V14.01,2013-04-30 01:48:00,
2013-04-29 21:53:00,60.4,50.6,29.88,South,180,0.6,3.1,70,0.00,,SKC,0.00,VWS V14.01,2013-04-30 01:53:00,
2013-04-29 21:58:00,60.2,50.4,29.88,SSW,202,2.9,3.1,70,0.00,,SKC,0.00,VWS V14.01,2013-04-30 01:58:00,
2013-04-29 22:03:00,60.2,50.8,29.88,South,180,0.8,0.8,71,0.00,,SKC,0.00,VWS V14.01,2013-04-30 02:03:00,
2013-04-29 22:08:00,60.0,50.6,29.89,SSW,202,0.0,0.8,71,0.00,,SKC,0.00,VWS V14.01,2013-04-30 02:08:00,
2013-04-29 22:13:00,59.9,50.5,29.89,South,180,2.6,2.6,71,0.00,,SKC,0.00,VWS V14.01,2013-04-30 02:13:00,
2013-04-29 22:18:00,59.7,50.7,29.89,SSW,202,0.4,0.4,72,0.00,,SKC,0.00,VWS V14.01,2013-04-30 02:18:00,
2013-04-29 22:23:00,59.7,51.0,29.89,SSW,202,0.0,0.8,73,0.00,,SKC,0.00,VWS V14.01,2013-04-30 02:23:00,
2013-04-29 22:28:00,59.7,51.0,29.89,SW,225,2.6,2.6,73,0.00,,SKC,0.00,VWS V14.01,2013-04-30 02:28:00,
2013-04-29 22:33:00,59.3,51.0,29.89,South,180,0.6,0.8,74,0.00,,SKC,0.00,VWS V14.01,2013-04-30 02:33:00,
2013-04-29 22:38:00,59.3,51.0,29.89,South,180,0.0,1.5,74,0.00,,SKC,0.00,VWS V14.01,2013-04-30 02:38:00,
2013-04-29 22:43:00,59.3,51.0,29.89,SSW,202,0.6,1.5,74,0.00,,SKC,0.00,VWS V14.01,2013-04-30 02:43:00,
2013-04-29 22:48:00,59.1,51.2,29.89,SSW,202,1.3,2.2,75,0.00,,SKC,0.00,VWS V14.01,2013-04-30 02:48:00,
2013-04-29 22:53:00,59.0,51.1,29.89,SSW,202,1.5,2.2,75,0.00,,SKC,0.00,VWS V14.01,2013-04-30 02:53:00,
2013-04-29 22:58:00,59.0,51.1,29.89,SSW,202,1.3,2.2,75,0.00,,SKC,0.00,VWS V14.01,2013-04-30 02:58:00,
2013-04-29 23:03:00,58.8,51.3,29.89,SSE,158,0.0,1.7,76,0.00,,SKC,0.00,VWS V14.01,2013-04-30 03:03:00,
2013-04-29 23:08:00,58.8,51.3,29.89,South,180,0.0,1.7,76,0.00,,SKC,0.00,VWS V14.01,2013-04-30 03:08:00,
2013-04-29 23:13:00,58.6,51.1,29.89,South,180,1.7,1.7,76,0.00,,SKC,0.00,VWS V14.01,2013-04-30 03:13:00,
2013-04-29 23:18:00,58.6,51.1,29.89,South,180,0.0,0.4,76,0.00,,SKC,0.00,VWS V14.01,2013-04-30 03:18:00,
2013-04-29 23:23:00,58.6,51.4,29.89,South,180,1.3,1.3,77,0.00,,SKC,0.00,VWS V14.01,2013-04-30 03:23:00,
2013-04-29 23:28:00,58.4,51.2,29.89,South,180,0.6,1.3,77,0.00,,SKC,0.00,VWS V14.01,2013-04-30 03:28:00,
2013-04-29 23:33:00,58.6,51.4,29.89,South,180,0.0,1.3,77,0.00,,SKC,0.00,VWS V14.01,2013-04-30 03:33:00,
2013-04-29 23:38:00,58.6,51.4,29.89,South,180,1.7,1.7,77,0.00,,SKC,0.00,VWS V14.01,2013-04-30 03:38:00,
2013-04-29 23:44:00,58.6,51.8,29.89,SSW,202,0.0,2.4,78,0.00,,SKC,0.00,VWS V14.01,2013-04-30 03:44:00,
2013-04-29 23:49:00,58.6,51.8,29.89,South,180,0.4,0.6,78,0.00,,SKC,0.00,VWS V14.01,2013-04-30 03:49:00,
2013-04-29 23:54:00,58.4,51.6,29.90,South,180,0.0,0.8,78,0.00,,SKC,0.00,VWS V14.01,2013-04-30 03:54:00,
2013-04-29 23:59:00,58.4,51.6,29.90,South,180,2.0,2.0,78,0.00,,SKC,0.00,VWS V14.01,2013-04-30 03:59:00,